Flag for China Weather past 2 weeks in Taiyuan, Shanxi, China

Now
18 °F

Haze.


Feels Like: 18 °F
Forecast: 12 / 44 °F
Wind: 1 mph from Southeast

Location: Taiyuan Airport

Current Time: Dec 27, 2014 at 4:45:13 AM

Latest Report: Dec 27, 2014 at 4:00 AM


Visibility: 1 mi

Pressure: 30.36 "Hg

Humidity: 73%

Dew point: 10 °F

Location of TaiyuanLocation

Historic Weather in Taiyuan — Graph

°F

Taiyuan temperature yesterday

Maximum temperature yesterday: 36 °F (at 2:00 PM)
Minimum temperature yesterday: 18 °F (at 1:30 AM)
Average temperature yesterday: 26 °F

Past Weeks' High & Low Weather Summary

 TemperatureHumidityPressure
High41 °F (Dec 22, 3:30 PM)79% (Dec 27, 3:00 AM)30.57 "Hg (Dec 27, 3:00 AM)
Low9 °F (Dec 13, 6:00 AM)12% (Dec 12, 3:30 PM)30.07 "Hg (Dec 23, 1:30 PM)
Average24 °F34%30.33 "Hg
* Reported Dec 12 3:00 AM — Dec 27 3:30 AM, Taiyuan, Weather by CustomWeather, © 2014

Note: Actual official high and low records may vary slightly from our data, if they occured in-between our weather recording intervals... More about our weather records

Advertising

Taiyuan weather history for previous 24 hours

 ConditionsComfort  
Time TempWeatherWind HumidityBarometerVisibility
3:30 AM
Dec 27
18 °FHaze.1 mph73%30.36 "Hg1 mi
3:00 AM16 °FHaze.No wind79%30.36 "Hg1 mi
2:30 AM18 °FHaze.No wind68%30.36 "Hg1 mi
2:00 AM19 °FHaze.No wind68%30.36 "Hg1 mi
1:30 AM19 °FHaze.No wind68%30.33 "Hg1 mi
1:00 AM19 °FHaze.No wind68%30.33 "Hg1 mi
12:30 AM19 °FHaze.1 mph68%30.33 "Hg2 mi
12:00 AM19 °FHaze.1 mph68%30.33 "Hg2 mi
11:30 PM
Dec 26
23 °FHaze.3 mph63%30.33 "Hg2 mi
11:00 PM23 °FHaze.3 mph63%30.33 "Hg2 mi
10:30 PM23 °FHaze.3 mph58%30.33 "Hg2 mi
10:00 PM23 °FHaze.1 mph58%30.33 "Hg1 mi
9:30 PM23 °FHaze.3 mph63%30.33 "Hg1 mi
9:00 PM27 °FHaze.3 mph50%30.33 "Hg1 mi
8:30 PM25 °FHaze.3 mph59%30.33 "Hg1 mi
8:00 PM25 °FHaze.1 mph59%30.33 "Hg1 mi
7:30 PM27 °FHaze.1 mph54%30.30 "Hg1 mi
7:00 PM27 °FHaze.1 mph54%30.30 "Hg1 mi
6:30 PM27 °FHaze.1 mph50%30.30 "Hg2 mi
6:00 PM28 °FHaze.1 mph51%30.30 "Hg2 mi
5:30 PM30 °FHaze.1 mph47%30.30 "Hg2 mi
5:00 PM32 °FHaze.1 mph37%30.27 "Hg2 mi
4:30 PM34 °FHaze.1 mph35%30.27 "Hg3 mi
4:00 PM34 °FHaze.1 mph35%30.27 "Hg2 mi
3:30 PM34 °FHaze.1 mph35%30.24 "Hg2 mi
3:00 PM36 °FHaze.1 mph32%30.24 "Hg2 mi
2:30 PM36 °FHaze.3 mph35%30.24 "Hg2 mi
2:00 PM36 °FHaze.3 mph38%30.27 "Hg2 mi
1:30 PM34 °FClear.3 mph38%30.27 "Hg4 mi
1:00 PM34 °FClear.1 mph32%30.30 "Hg4 mi
12:30 PM34 °FHaze.1 mph32%30.30 "Hg3 mi
12:00 PM32 °FHaze.1 mph27%30.33 "Hg2 mi
11:30 AM32 °FHaze.1 mph32%30.33 "Hg2 mi
10:30 AM30 °FHaze.1 mph34%30.36 "Hg2 mi
10:00 AM28 °FHaze.1 mph37%30.36 "Hg2 mi
9:30 AM27 °FHaze.1 mph39%30.33 "Hg2 mi
9:00 AM25 °FHaze.No wind42%30.33 "Hg2 mi
8:30 AM25 °FHaze.1 mph42%30.33 "Hg2 mi
8:00 AM25 °FHaze.1 mph42%30.33 "Hg2 mi
7:30 AM23 °FHaze.1 mph50%30.33 "Hg3 mi
7:00 AM23 °FClear.No wind50%30.33 "Hg5 mi
6:30 AM21 °FClear.No wind49%30.33 "Hg4 mi
6:00 AM21 °FClear.No wind54%30.33 "Hg5 mi
5:30 AM23 °FClear.1 mph46%30.33 "Hg4 mi
5:00 AM21 °FHaze.No wind45%30.33 "Hg3 mi
4:30 AM21 °FHaze.1 mph49%30.33 "Hg3 mi
4:00 AM21 °FHaze.1 mph54%30.33 "Hg3 mi
Weather by CustomWeather, © 2014

See weather overviewHow to use our weather pages